map of IBZ home
IBZ - Airport
Location
City:  Eivissa, Eivissa, Balearic Islands, Spain
Near (Alt.):Ibiza
ICAO:LEIB
IATA:IBZ

Details
Type:Airport (Aerodrome, Airfield)
Use:Public/Civil
Latitude:3852'22"N (38.872858)
Longitude:122'23"E (1.373117)
Datum:WGS 1984
Elevation:20 ft (6 m)
Variation:0.68E (WMM2015 magnetic declination)
0.11 annual change
Runways:1
Longest:9186 × 148 ft (2800 × 45 m), paved

Time
Time Zone:UTC+1 (DST+2)
Local Time:

Weather
METAR:LEIB 230830Z 03006KT 360V060 9999 FEW030TCU BKN045 08/05 Q1007 NOSIG
TAF:LEIB 230800Z 2309/2409 01005KT 9999 SCT025 TX12/2313Z TN05/2406Z PROB40
TEMPO 2309/2320 4000 SHRA BKN020 SCT030TCU

Related Locations
Nearby:
Farthest:GIS: 12259 mi / 19728 km
Gisborne, GIS, NZ

Find:

   beyond  
but within

Other Information
Maps:
NOTAMs:
Links:
Sources:

  
flag of Spain
flag of Balearic Islands
  

Airport Diagram

Airport diagram for IBZ

Larger airport diagram (OBSOLETE) from NGA

Sectional Chart

Flight Planning
at skyvector.com

Satellite Image

Google Maps Satellite view

 

Copyright © 2004-2018 Karl L. Swartz. All rights reserved.
The Great Circle Mapper name and logo are trademarks of the Great Circle Mapper.
All other trademarks mentioned herein belong to their respective owners.
Please see credits for attibutions and further copyright information.

  Follow gcmap on Facebook Follow gcmap on Twitter Follow gcmap on Google+ GCmap on LinkedIn

hCard Microformat

Geo Microformat